Biloxi, MS

2:36 AM CDT on May 23, 2017 (GMT -0500)
Keesler Air Force Base

Weather History for KBIX - May, 2013

Change the Weather History Date:

Sunday, May 19, 2013

  Actual Average Record
Temperature  
Mean Temperature 80 °F -  
Max Temperature 83 °F 83 °F 96 °F (1962)
Min Temperature 76 °F 68 °F 50 °F (2002)
Cooling Degree Days 14    
Growing Degree Days 30 (Base 50)    
Moisture  
Dew Point 73 °F    
Average Humidity 85    
Maximum Humidity 89    
Minimum Humidity 73    
Precipitation  
Precipitation 0.00 in - - ()
Sea Level Pressure  
Sea Level Pressure 30.02 in    
Wind  
Wind Speed 10 mph (South)    
Max Wind Speed 13 mph    
Max Gust Speed -    
Visibility 10 miles    
Events      
Averages and records for this station are not official NWS values.
T = Trace of Precipitation, MM = Missing Value Source: NWS Daily Summary

Daily Weather History Graph

Daily Weather History Graph

Search for Another Location

Airport or City:

Trip Planner

Search our weather history database for the weather conditions in past years. The results will help you decide how hot, cold, wet, or windy it might be!

Date:

Astronomy

May. 19, 2013 Rise Set
Actual Time 5:59 AM CDT 7:45 PM CDT
Civil Twilight 5:32 AM CDT 8:12 PM CDT
Nautical Twilight 5:00 AM CDT 8:44 PM CDT
Astronomical Twilight 4:26 AM CDT 9:18 PM CDT
Moon 2:12 PM CDT (5/19) 1:57 AM CDT (5/19)
Length of Visible Light 14h 39m
Length of Day
13h 46m
Waxing Gibbous, 65% of the Moon is Illuminated
May 19
Waxing Gibbous
May 24
Full
May 31
Last Quarter
Jun 8
New
Jun 16
First Quarter

Hourly Weather History & Observations

Time (CDT) Temp. Heat Index Dew Point Humidity Pressure Visibility Wind Dir Wind Speed Gust Speed Precip Events Conditions
12:48 AM 77.0 °F - 73.4 °F 89% 30.01 in 10.0 mi South 11.5 mph - N/A   Mostly Cloudy
12:58 AM 76.8 °F - 72.9 °F 88% 30.02 in 10.0 mi South 12.7 mph - N/A   Mostly Cloudy
1:58 AM 76.8 °F - 72.7 °F 87% 30.01 in 10.0 mi South 10.4 mph - N/A   Mostly Cloudy
2:13 AM 77.0 °F - 71.6 °F 83% 29.99 in 10.0 mi SSW 12.7 mph - N/A   Mostly Cloudy
2:18 AM 77.0 °F - 71.6 °F 83% 29.99 in 10.0 mi SSW 12.7 mph - N/A   Scattered Clouds
2:28 AM 77.0 °F - 71.6 °F 83% 29.99 in 10.0 mi SSW 11.5 mph - N/A   Mostly Cloudy
2:53 AM 77.0 °F - 71.6 °F 83% 29.99 in 10.0 mi SSW 12.7 mph - N/A   Mostly Cloudy
2:58 AM 76.5 °F - 71.8 °F 85% 30.00 in 10.0 mi SSW 11.5 mph - N/A   Mostly Cloudy
3:08 AM 77.0 °F - 71.6 °F 83% 30.00 in 10.0 mi South 12.7 mph - N/A   Mostly Cloudy
3:13 AM 77.0 °F - 71.6 °F 83% 30.00 in 10.0 mi SSW 12.7 mph - N/A   Mostly Cloudy
3:18 AM 77.0 °F - 71.6 °F 83% 30.00 in 10.0 mi SSW 11.5 mph - N/A   Mostly Cloudy
3:23 AM 77.0 °F - 71.6 °F 83% 30.00 in 10.0 mi SSW 11.5 mph - N/A   Scattered Clouds
3:58 AM 76.3 °F - 71.6 °F 85% 30.02 in 10.0 mi South 10.4 mph - N/A   Partly Cloudy
4:58 AM 76.3 °F - 72.5 °F 88% 30.03 in 10.0 mi South 8.1 mph - N/A   Scattered Clouds
5:03 AM 77.0 °F - 73.4 °F 89% 30.02 in 10.0 mi South 9.2 mph - N/A   Mostly Cloudy
5:28 AM 77.0 °F - 73.4 °F 89% 30.02 in 10.0 mi South 8.1 mph - N/A   Mostly Cloudy
5:58 AM 77.0 °F - 73.4 °F 89% 30.04 in 10.0 mi South 5.8 mph - N/A   Overcast
6:18 AM 77.0 °F - 73.4 °F 89% 30.03 in 10.0 mi South 9.2 mph - N/A   Overcast
6:28 AM 77.0 °F - 73.4 °F 89% 30.03 in 10.0 mi South 6.9 mph - N/A   Mostly Cloudy
6:33 AM 77.0 °F - 73.4 °F 89% 30.03 in 10.0 mi South 10.4 mph - N/A   Mostly Cloudy
6:58 AM 77.0 °F - 72.9 °F 87% 30.04 in 10.0 mi South 8.1 mph - N/A   Mostly Cloudy
7:08 AM 77.0 °F - 73.4 °F 89% 30.03 in 10.0 mi South 10.4 mph - N/A   Mostly Cloudy
7:28 AM 77.0 °F - 73.4 °F 89% 30.03 in 10.0 mi SSE 8.1 mph - N/A   Overcast
7:58 AM 77.4 °F - 73.6 °F 88% 30.05 in 10.0 mi South 10.4 mph - N/A   Mostly Cloudy
8:08 AM 77.0 °F - 73.4 °F 89% 30.04 in 10.0 mi South 8.1 mph - N/A   Scattered Clouds
8:13 AM 77.0 °F - 73.4 °F 89% 30.04 in 10.0 mi South 9.2 mph - N/A   Mostly Cloudy
8:28 AM 78.8 °F - 73.4 °F 83% 30.04 in 10.0 mi South 10.4 mph - N/A   Mostly Cloudy
8:43 AM 78.8 °F - 73.4 °F 83% 30.04 in 10.0 mi South 8.1 mph - N/A   Overcast
8:58 AM 79.0 °F - 74.1 °F 85% 30.05 in 10.0 mi South 12.7 mph - N/A   Overcast
9:13 AM 78.8 °F - 73.4 °F 83% 30.04 in 10.0 mi South 9.2 mph - N/A   Overcast
9:58 AM 79.3 °F - 73.2 °F 81% 30.05 in 10.0 mi SSW 10.4 mph - N/A   Mostly Cloudy
10:13 AM 78.8 °F - 73.4 °F 83% 30.04 in 10.0 mi South 6.9 mph - N/A   Overcast
10:23 AM 78.8 °F - 73.4 °F 83% 30.04 in 10.0 mi South 9.2 mph - N/A   Overcast
10:38 AM 80.6 °F 85.4 °F 73.4 °F 79% 30.04 in 10.0 mi South 10.4 mph - N/A   Overcast
10:58 AM 79.3 °F - 74.1 °F 84% 30.05 in 10.0 mi South 9.2 mph - N/A   Overcast
11:03 AM 78.8 °F - 73.4 °F 83% 30.04 in 10.0 mi South 9.2 mph - N/A   Overcast
11:08 AM 78.8 °F - 73.4 °F 83% 30.05 in 10.0 mi South 9.2 mph - N/A   Mostly Cloudy
11:13 AM 80.6 °F 85.4 °F 73.4 °F 79% 30.05 in 10.0 mi South 9.2 mph - N/A   Mostly Cloudy
11:33 AM 80.6 °F 85.4 °F 73.4 °F 79% 30.05 in 10.0 mi South 11.5 mph - N/A   Mostly Cloudy
11:43 AM 80.6 °F 85.4 °F 73.4 °F 79% 30.05 in 10.0 mi South 9.2 mph - N/A   Mostly Cloudy
11:48 AM 80.6 °F 85.4 °F 73.4 °F 79% 30.05 in 10.0 mi South 10.4 mph - N/A   Mostly Cloudy
11:58 AM 80.1 °F 84.2 °F 73.0 °F 79% 30.06 in 10.0 mi South 10.4 mph - N/A   Mostly Cloudy
12:08 PM 80.6 °F 85.4 °F 73.4 °F 79% 30.05 in 10.0 mi South 9.2 mph - N/A   Mostly Cloudy
12:18 PM 80.6 °F 85.4 °F 73.4 °F 79% 30.04 in 10.0 mi South 10.4 mph - N/A   Mostly Cloudy
12:23 PM 82.4 °F 88.2 °F 73.4 °F 74% 30.04 in 10.0 mi South 11.5 mph - N/A   Mostly Cloudy
12:58 PM 83.3 °F 89.9 °F 73.9 °F 73% 30.04 in 10.0 mi SSW 11.5 mph - N/A   Mostly Cloudy
1:58 PM 81.5 °F 86.9 °F 73.6 °F 77% 30.04 in 10.0 mi South 10.4 mph - N/A   Scattered Clouds
2:58 PM 80.6 °F 86.2 °F 75.2 °F 84% 30.02 in 10.0 mi South 6.9 mph - N/A   Mostly Cloudy
3:58 PM 80.6 °F 85.4 °F 73.4 °F 79% 30.01 in 10.0 mi South 6.9 mph - N/A   Scattered Clouds
4:03 PM 80.6 °F 85.4 °F 73.4 °F 79% 30.00 in 10.0 mi SE 6.9 mph - N/A   Mostly Cloudy
4:13 PM 78.8 °F - 73.4 °F 83% 30.00 in 10.0 mi SSE 8.1 mph - N/A   Mostly Cloudy
4:18 PM 78.8 °F - 73.4 °F 83% 30.00 in 10.0 mi SSE 8.1 mph - N/A   Mostly Cloudy
4:28 PM 80.6 °F 86.2 °F 75.2 °F 84% 30.00 in 10.0 mi SSE 10.4 mph - N/A   Mostly Cloudy
4:43 PM 80.6 °F 86.2 °F 75.2 °F 84% 29.99 in 10.0 mi SSE 9.2 mph - N/A   Mostly Cloudy
4:48 PM 80.6 °F 86.2 °F 75.2 °F 84% 29.99 in 10.0 mi SSE 6.9 mph - N/A   Mostly Cloudy
4:58 PM 79.9 °F - 74.5 °F 83% 30.00 in 10.0 mi SSE 8.1 mph - N/A   Mostly Cloudy
5:03 PM 78.8 °F - 75.2 °F 89% 29.99 in 10.0 mi South 8.1 mph - N/A   Mostly Cloudy
5:08 PM 78.8 °F - 75.2 °F 89% 29.99 in 10.0 mi SE 8.1 mph - N/A   Mostly Cloudy
5:13 PM 78.8 °F - 73.4 °F 83% 29.99 in 10.0 mi SSE 9.2 mph - N/A   Mostly Cloudy
5:53 PM 78.8 °F - 75.2 °F 89% 29.99 in 10.0 mi SSE 9.2 mph - N/A   Overcast
5:58 PM 78.8 °F - 75.2 °F 89% 30.00 in 10.0 mi SSE 8.1 mph - N/A   Mostly Cloudy
6:08 PM 78.8 °F - 73.4 °F 83% 29.99 in 10.0 mi South 8.1 mph - N/A   Mostly Cloudy
6:13 PM 78.8 °F - 75.2 °F 89% 29.99 in 10.0 mi SSE 8.1 mph - N/A   Mostly Cloudy
6:23 PM 78.8 °F - 73.4 °F 83% 29.99 in 10.0 mi SSE 8.1 mph - N/A   Mostly Cloudy
6:33 PM 78.8 °F - 75.2 °F 89% 29.99 in 10.0 mi SSE 6.9 mph - N/A   Mostly Cloudy
6:48 PM 78.8 °F - 73.4 °F 83% 29.99 in 10.0 mi SSE 8.1 mph - N/A   Overcast
6:58 PM 78.6 °F - 74.1 °F 86% 30.00 in 10.0 mi South 10.4 mph - N/A   Mostly Cloudy
7:08 PM 78.8 °F - 73.4 °F 83% 29.99 in 10.0 mi SSE 6.9 mph - N/A   Overcast
7:38 PM 77.0 °F - 73.4 °F 89% 30.00 in 10.0 mi SSE 9.2 mph - N/A   Mostly Cloudy
7:43 PM 77.0 °F - 73.4 °F 89% 30.00 in 10.0 mi SSE 8.1 mph - N/A   Mostly Cloudy
7:53 PM 77.0 °F - 73.4 °F 89% 30.00 in 10.0 mi SSE 6.9 mph - N/A   Mostly Cloudy
7:58 PM 77.7 °F - 73.9 °F 88% 30.01 in 10.0 mi SSE 6.9 mph - N/A   Mostly Cloudy
8:03 PM 77.0 °F - 73.4 °F 89% 30.00 in 10.0 mi SSE 6.9 mph - N/A   Mostly Cloudy
8:08 PM 77.0 °F - 73.4 °F 89% 30.00 in 10.0 mi SSE 9.2 mph - N/A   Mostly Cloudy
8:53 PM 77.0 °F - 73.4 °F 89% 30.02 in 10.0 mi SSE 9.2 mph - N/A   Mostly Cloudy
8:58 PM 77.0 °F - 73.4 °F 89% 30.03 in 10.0 mi SSE 9.2 mph - N/A   Mostly Cloudy
9:13 PM 77.0 °F - 73.4 °F 89% 30.02 in 10.0 mi SSE 9.2 mph - N/A   Scattered Clouds
9:28 PM 77.0 °F - 73.4 °F 89% 30.02 in 10.0 mi SSE 9.2 mph - N/A   Mostly Cloudy
9:33 PM 77.0 °F - 73.4 °F 89% 30.03 in 10.0 mi SSE 6.9 mph - N/A   Scattered Clouds
9:43 PM 77.0 °F - 73.4 °F 89% 30.03 in 10.0 mi SSE 6.9 mph - N/A   Mostly Cloudy
9:58 PM 77.0 °F - 72.9 °F 87% 30.04 in 10.0 mi SSE 8.1 mph - N/A   Mostly Cloudy
10:08 PM 77.0 °F - 73.4 °F 89% 30.03 in 10.0 mi SSE 8.1 mph - N/A   Mostly Cloudy
10:18 PM 77.0 °F - 73.4 °F 89% 30.03 in 10.0 mi SE 6.9 mph - N/A   Mostly Cloudy
10:28 PM 77.0 °F - 73.4 °F 89% 30.03 in 10.0 mi SSE 8.1 mph - N/A   Mostly Cloudy
10:33 PM 77.0 °F - 73.4 °F 89% 30.03 in 10.0 mi SSE 6.9 mph - N/A   Mostly Cloudy
10:38 PM 77.0 °F - 71.6 °F 83% 30.03 in 10.0 mi SSE 6.9 mph - N/A   Scattered Clouds
10:58 PM 76.6 °F - 72.5 °F 87% 30.03 in 10.0 mi SSE 8.1 mph - N/A   Scattered Clouds
11:08 PM 77.0 °F - 73.4 °F 89% 30.01 in 10.0 mi SSE 8.1 mph - N/A   Mostly Cloudy
11:18 PM 77.0 °F - 73.4 °F 89% 30.01 in 10.0 mi SSE 8.1 mph - N/A   Scattered Clouds
11:53 PM 77.0 °F - 73.4 °F 89% 30.02 in 10.0 mi SSE 6.9 mph - N/A   Mostly Cloudy
11:58 PM 76.5 °F - 72.7 °F 88% 30.03 in 10.0 mi SSE 8.1 mph - N/A   Mostly Cloudy